logo
Search for airport 
image banner adimage banner adimage banner ad
image banner ad

OLRA - Rayak Airbase

Located in Houch Hala, Lebanon

ICAO - OLRA, IATA -

Data provided by Airmate  

General information

Coordinates: N33°51'6" E35°59'35"
Elevation is 2952 feet MSL.
Magnetic variation is 5° East
View others Airports in Beqaa Governorate

Operational data

Special qualification required
Current time UTC:
Current local time:
METAR: OLBA 241800Z VRB01KT 5000 DU NSC 30/11 Q1010 NOSIG
TAF: TAF OLBA 241600Z 2418/2524 05008KT 6000 NSC BECMG 2506/2509 35014KT TEMPO 2506/2518 4000 DU BECMG 2518/2521 29012KT 5000 BR FEW026 SCT070
View NOTAMs / SUP AIP / TFR affecting this airport [VIEW]
Communications frequencies: [VIEW]

Runways:

RWY identifierQFULength (ft)Width (ft)SurfaceLDA (ft)
0443°9507148CON
22223°9507148CON

Airport contact information

Address: Houch Hala Lebanon

Satellite view of OLRA